Content
SEND FEEDBACK

Daily
Averages
Monthly
Summary
United States of America

CHICAGO, ILLINOIS


Home > North America > United States > Illinois
Elevation: 674 feet     Latitude: 41 59N     Longitude: 087 54W

WEATHER
 
SELECT A DAY
Number of Records: 199,667;   Date Range: 7/8/95 - 12/21/14
 
SHARE

PRINT THIS DATA

[ ← Previous Day ]
WEATHER ALMANAC - FEBRUARY 1, 2013
[ Next Day → ]
[ °C ]   °F
Weather ElementAverageHighLow
Temperature8.3 °F12.9 °F (8:52 pm) (6:52 am)
Dewpoint0.4 °F10.4 °F (11:41 pm)-7.1 °F (5:52 am)
Humidity70.5 %92 % (11:41 pm)56 % (12:52 pm)
Barometer30.29 in30.39 in (10:52 am)30.18 in (11:41 pm)
Wind Speed9.4 mph15 mph (1:52 pm)
Wind Gust21.9 mph (1:52 pm)
Weather ElementAverage
Visibility7.7 mi
Wind DirectionWSW (247.9 °)

Weather ElementTotal
Precipitation---
Heating Degree Days58.6 (Base 65)
Averaged from 28 records on February 1, 2013
WEATHER CONDITIONS BREAKOUT
WIND DIRECTION BREAKOUT
WEATHER BY HOUR - FEBRUARY 1, 2013
[ °C ]   °F
Local TimeTemperatureDewpointHumidityBarometerVisibilityWind DirectionWind SpeedGust SpeedPrecipitationEventsConditions
1:52 AM3.9 °F-4.0 °F70 %30.24 in10.0 miWNW (290°)13.8 mph19.6 mphClear
2:52 AM3.0 °F-4.0 °F73 %30.26 in10.0 miWest (280°)12.7 mph20.7 mphClear
3:52 AM1.9 °F-5.1 °F72 %30.29 in10.0 miWest (260°)9.2 mph18.4 mphClear
4:52 AM1.9 °F-6.0 °F69 %30.31 in10.0 miWNW (290°)10.4 mph20.7 mphClear
5:52 AM1.0 °F-7.1 °F69 %30.33 in10.0 miWest (280°)12.7 mph19.6 mphClear
6:52 AM0.0 °F-7.1 °F72 %30.35 in10.0 miWest (270°)11.5 mphClear
7:52 AM0.0 °F-7.1 °F72 %30.36 in10.0 miWest (270°)9.2 mphClear
8:52 AM1.9 °F-6.0 °F69 %30.38 in10.0 miWest (270°)10.4 mphClear
9:52 AM5.0 °F-5.1 °F63 %30.38 in10.0 miWest (280°)10.4 mphClear
10:52 AM7.0 °F-2.9 °F64 %30.39 in10.0 miWSW (250°)10.4 mphClear
11:52 AM7.0 °F-4.0 °F61 %30.38 in10.0 miWSW (250°)10.4 mph18.4 mphClear
12:52 PM10.0 °F-2.9 °F56 %30.36 in10.0 miWSW (240°)10.4 mph18.4 mphClear
1:52 PM10.9 °F-0.9 °F59 %30.34 in10.0 miSW (230°)15.0 mph21.9 mphClear
2:52 PM10.9 °F-0.9 °F59 %30.33 in10.0 miWest (260°)15.0 mph19.6 mphClear
3:52 PM12.0 °F0.0 °F59 %30.32 in10.0 miWest (260°)10.4 mphClear
4:52 PM10.9 °F0.0 °F61 %30.32 in10.0 miWSW (250°)10.4 mphClear
5:52 PM10.9 °F1.0 °F64 %30.31 in10.0 miSW (230°)10.4 mph19.6 mphPartly Cloudy
6:52 PM10.9 °F1.0 °F64 %30.30 in10.0 miWSW (240°)9.2 mphMostly Cloudy
7:52 PM12.0 °F1.9 °F64 %30.28 in10.0 miSW (230°)9.2 mphScattered Clouds
8:52 PM12.9 °F3.0 °F65 %30.27 in10.0 miWSW (240°)9.2 mphOvercast
9:38 PM12.2 °F6.8 °F79 %30.22 in2.0 miWSW (250°)6.9 mph0.00 inSnowLight Snow
9:52 PM12.9 °F7.0 °F77 %30.27 in2.0 miSW (230°)5.8 mph0.00 inSnowLight Snow
10:07 PM12.2 °F6.8 °F79 %30.21 in2.5 miWSW (240°)5.8 mph0.00 inSnowLight Snow
10:32 PM12.2 °F8.6 °F85 %30.20 in2.0 miSW (230°)4.6 mph0.00 inSnowLight Snow
10:52 PM12.9 °F9.0 °F84 %30.24 in1.8 miSW (220°)4.6 mph0.00 inSnowLight Snow
11:21 PM12.2 °F8.6 °F85 %30.19 in2.0 miSSW (200°)5.8 mph0.00 inSnowLight Snow
11:41 PM12.2 °F10.4 °F92 %30.18 in1.8 miSSW (200°)4.6 mph0.00 inSnowLight Snow
11:52 PM12.9 °F10.0 °F88 %30.22 in2.0 miSSW (200°)4.6 mph0.00 inSnowLight Snow
Hourly data recorded from KPWK, located miles away from Chicago, Illinois







STORIES FROM OUR PARTNERS